Home > Weather > Whistler > Past weeks

Flag for Canada Past Weather in Whistler, British Columbia, Canada — Yesterday and Last 2 Weeks

Now
68 °F

Mild.


Feels Like: 68 °F
Forecast: 54 / 76 °F
Wind: 6 mph from South

Location: Squamish Airport

Current Time: Aug 27, 2016 at 10:07:51 AM

Latest Report: Aug 27, 2016 at 9:00 AM


Visibility: N/A

Pressure: 29.67 "Hg (27.43 "Hg at 674m altitude)

Humidity: 68%

Dew Point: 57 °F

Location of WhistlerLocation

Past Weather in Whistler — Graph

°F

Whistler Temperature Yesterday

Maximum temperature yesterday: 88 °F (at 2:00 PM)
Minimum temperature yesterday: 57 °F (at 5:00 AM)
Average temperature yesterday: 71 °F

High & Low Weather Summary for the Past Weeks

 TemperatureHumidityPressure
High97 °F (Aug 19, 3:00 PM)98% (Aug 22, 8:00 AM)30.27 "Hg (Aug 22, 8:00 AM)
Low47 °F (Aug 22, 7:00 AM)11% (Aug 19, 3:00 PM)29.67 "Hg (Aug 27, 6:00 AM)
Average69 °F60%29.98 "Hg
* Reported Aug 12 9:00 AM — Aug 27 9:00 AM, Whistler, Weather by CustomWeather, © 2016

Note: Actual official high and low records may vary slightly from our data, if they occured in-between our weather recording intervals... More about our weather records

Advertising

Whistler Weather History for the Previous 24 Hours

Scroll right to see more
 ConditionsComfort  
Time TempWeatherWind HumidityBarometerVisibility
9:00 AM
Sat, Aug 27
68 °FMild.6 mph68%29.67 "HgN/A
8:00 AM63 °FMild.1 mph77%29.68 "HgN/A
7:00 AM62 °FMild.No wind77%29.67 "HgN/A
6:00 AM61 °FCool.1 mph78%29.67 "HgN/A
5:00 AM61 °FCool.1 mph77%29.67 "HgN/A
4:00 AM60 °FCool.No wind78%29.67 "HgN/A
3:00 AM61 °FCool.1 mph77%29.69 "HgN/A
2:00 AM62 °FCool.1 mph73%29.69 "HgN/A
1:00 AM63 °FMild.1 mph70%29.71 "HgN/A
12:00 AM64 °FMild.1 mph68%29.72 "HgN/A
11:00 PM
Fri, Aug 26
64 °FMild.1 mph66%29.74 "HgN/A
10:00 PM67 °FMild.1 mph59%29.74 "HgN/A
9:00 PM70 °FMild.1 mph55%29.75 "HgN/A
8:00 PM75 °FMild.1 mph43%29.74 "HgN/A
7:00 PM79 °FPleasantly warm.3 mph34%29.75 "HgN/A
6:00 PM84 °FPleasantly warm.5 mph28%29.76 "HgN/A
5:00 PM85 °FPleasantly warm.8 mph27%29.77 "HgN/A
4:00 PM86 °FPleasantly warm.7 mph25%29.78 "HgN/A
3:00 PM87 °FPleasantly warm.8 mph22%29.80 "HgN/A
2:00 PM88 °FHot.7 mph23%29.82 "HgN/A
1:00 PM86 °FPleasantly warm.7 mph24%29.85 "HgN/A
12:00 PM84 °FPleasantly warm.2 mph23%29.87 "HgN/A
11:00 AM78 °FPleasantly warm.1 mph34%29.89 "HgN/A
10:00 AM73 °FMild.2 mph42%29.93 "HgN/A
Weather by CustomWeather, © 2016

See weather overviewHow to use our weather pages